Weather History for Pensacola NAS, FL

Change the Weather History Date:

Saturday, January 5, 2013

  Actual Average Record
Temperature  
Mean Temperature 48 °F -  
Max Temperature 54 °F 59 °F - (-1)
Min Temperature 41 °F 40 °F - (-1)
Degree Days  
Heating Degree Days 18    
Moisture  
Dew Point 35 °F    
Average Humidity 58    
Maximum Humidity 70    
Minimum Humidity 45    
Precipitation  
Precipitation 0.00 in - - ()
Sea Level Pressure  
Sea Level Pressure 30.31 in    
Wind  
Wind Speed 7 mph (NNE)    
Max Wind Speed 10 mph    
Max Gust Speed -    
Visibility 10 miles    
Events Rain    
Averages and records for this station are not official NWS values.
T = Trace of Precipitation, MM = Missing Value Source: NWS Daily Summary

Daily Weather History Graph

Daily Weather History Graph

Search for Another Location

Airport:

Trip Planner

Search our weather history database for the weather conditions in past years. The results will help you decide how hot, cold, wet, or windy it might be!

Date:

Astronomy

Jan. 05, 2013 Rise Set
Actual Time 6:46 AM CST 5:03 PM CST
Civil Twilight 6:20 AM CST 5:29 PM CST
Nautical Twilight 5:50 AM CST 5:59 PM CST
Astronomical Twilight 5:21 AM CST 6:28 PM CST
Moon 12:07 AM CST (1/5) 11:40 AM CST (1/5)
Length of Visible Light 11h 08m
Length of Day
10h 16m
Last Quarter, 44% of the Moon is Illuminated
Jan 5
Last Quarter
Jan 11
New
Jan 18
First Quarter
Jan 26
Full
Feb 3
Last Quarter

Hourly Weather History & Observations

Time (CST) Temp. Windchill Dew Point Humidity Pressure Visibility Wind Dir Wind Speed Gust Speed Precip Events Conditions
12:56 AM 45.0 °F 41.2 °F 33.1 °F 63% 30.34 in 10.0 mi North 6.9 mph - N/A   Clear
1:56 AM 44.1 °F 39.5 °F 32.0 °F 63% 30.33 in 10.0 mi NNE 8.1 mph - N/A   Clear
2:56 AM 43.0 °F 38.8 °F 32.0 °F 65% 30.34 in 10.0 mi NNE 6.9 mph - N/A   Clear
3:56 AM 41.0 °F 38.0 °F 32.0 °F 70% 30.34 in 10.0 mi NNE 4.6 mph - N/A   Clear
4:56 AM 45.0 °F 40.6 °F 30.0 °F 56% 30.32 in 10.0 mi NE 8.1 mph - N/A   Clear
5:56 AM 45.0 °F 39.7 °F 30.0 °F 56% 30.32 in 10.0 mi NE 10.4 mph - N/A   Clear
6:56 AM 45.0 °F 39.7 °F 28.9 °F 53% 30.34 in 10.0 mi NE 10.4 mph - N/A   Clear
7:56 AM 46.0 °F 41.0 °F 33.1 °F 61% 30.36 in 10.0 mi ENE 10.4 mph - N/A   Clear
8:56 AM 48.9 °F - 35.1 °F 59% 30.35 in 10.0 mi ENE 9.2 mph - N/A   Overcast
9:56 AM 48.9 °F - 33.1 °F 54% 30.37 in 10.0 mi ENE 8.1 mph - N/A   Overcast
10:56 AM 51.1 °F - 32.0 °F 48% 30.34 in 10.0 mi NE 6.9 mph - N/A   Overcast
11:56 AM 52.0 °F - 32.0 °F 47% 30.32 in 10.0 mi ENE 9.2 mph - N/A   Overcast
12:56 PM 53.1 °F - 33.1 °F 47% 30.27 in 10.0 mi East 9.2 mph - N/A   Overcast
1:56 PM 53.1 °F - 32.0 °F 45% 30.29 in 10.0 mi NNE 4.6 mph - N/A   Overcast
2:56 PM 54.0 °F - 35.1 °F 49% 30.30 in 10.0 mi North 5.8 mph - N/A   Overcast
3:56 PM 53.1 °F - 37.0 °F 55% 30.29 in 10.0 mi NNE 5.8 mph - N/A   Overcast
4:47 PM 51.8 °F - 37.4 °F 58% 30.30 in 10.0 mi North 5.8 mph - 0.00 in Rain Light Rain
4:56 PM 51.1 °F - 39.0 °F 63% 30.30 in 10.0 mi North 5.8 mph - 0.00 in Rain Light Rain
5:21 PM 50.0 °F - 39.2 °F 66% 30.29 in 10.0 mi North 5.8 mph - 0.00 in   Overcast
5:30 PM 50.0 °F - 39.2 °F 66% 30.30 in 10.0 mi NNW 6.9 mph - 0.00 in   Overcast
5:56 PM 51.1 °F - 41.0 °F 68% 30.30 in 10.0 mi NE 6.9 mph - 0.00 in   Overcast
6:56 PM 52.0 °F - 39.0 °F 61% 30.29 in 10.0 mi Variable 5.8 mph - N/A   Overcast
7:56 PM 51.1 °F - 39.9 °F 66% 30.30 in 10.0 mi NNE 3.5 mph - N/A   Overcast
8:56 PM 51.1 °F - 37.9 °F 61% 30.28 in 10.0 mi NNE 5.8 mph - N/A   Overcast
9:56 PM 51.1 °F - 37.0 °F 59% 30.27 in 10.0 mi NNE 5.8 mph - N/A   Partly Cloudy
10:56 PM 51.1 °F - 36.0 °F 56% 30.25 in 10.0 mi NNE 6.9 mph - N/A   Clear
11:56 PM 50.0 °F - 37.0 °F 61% 30.24 in 10.0 mi North 5.8 mph - N/A   Mostly Cloudy